Location: Ertinghausen
(51.6624°N, 9.7874°E)
Time: 21:42:52
(UTC+00:00)

CZ-2C R/B - Pass Details

Date: 20 August 2024
Orbit: 703 x 904 km, 98.2° (Epoch: 07 September)

Event Time Altitude Azimuth Distance (km) Brightness Sun altitude
Rises 01:57:45 0° 11° (NNE) 3,250 7.3 -17.9°
Reaches altitude 10° 02:00:02 10° 8° (N) 2,348 6.4 -17.7°
Maximum altitude 02:05:07 59° 290° (WNW) 942 3.3 -17.2°
Enters shadow 02:07:52 28° 223° (SW) 1,512 3.9 -16.9°
